Location: Waco, TX
(31.5480°N, 97.1670°W)
Time: 22:47:13
(UTC-06:00)

ISS - Pass Details

Date: 13 February 2019
Orbit: 403 x 411 km, 51.6° (Epoch: 22 February)

Event Time Altitude Azimuth Distance (km) Brightness Sun altitude
Rises 09:21:08 0° 209° (SSW) 2,300 0.1 24.1°
Reaches altitude 10° 09:23:16 10° 201° (SSW) 1,445 -0.8 24.4°
Maximum altitude 09:26:19 39° 131° (SE) 617 -0.9 25.0°
Drops below altitude 10° 09:29:23 10° 60° (ENE) 1,454 -0.6 25.5°
Sets 09:31:32 0° 53° (NE) 2,317 0.2 25.9°
